Weather in Porshur-Tuklya

Russia / Udmurt Republic     57°05′45″N   52°09′14″E
temp.,
°C
wind,
m/s
gust,
m/s
humid.,
%
clouds,
%
prec.,
mm/h
press.,
hPa
HPBL,
m
6 march, sat
sat601:00−10wsw389697 0.3 1006318
04:00−13w239796 0.4 100849
07:00−14wnw2697100 0.1 1009159
10:00−14nw259058 0.1 1011283
13:00−10wnw358229 0.0 1012788
16:00−10w358565 0.1 1012892
19:00−14w2695100 0.1 1012186
22:00−18w229884 0.1 101320
7 march, sun
sun701:00−20wsw2210017 0.0 101220
04:00−19sw129957 0.1 101220
07:00−20sw1210097 0.0 101120
10:00−15sw129398 0.1 1011243
13:00−10sw2384100 0.1 1010673
16:00−10ssw2485100 0.1 1009726
19:00−14s2395100 0.1 100852
22:00−16sse389694 0.1 1007187
8 march, mon
mon801:00−14se41096100 0.0 1004291
04:00−13se51094100 0.3 1001404
07:00−13se51194100 1.0 997580
10:00−9se51193100 1.9 996714
13:00−6sw5989100 1.1 996924
16:00−6ssw5987100 1.3 9961056
19:00−7ssw41095100 0.4 996899
22:00−8s3895100 1.2 995384
9 march, tue
tue901:00−9ssw3796100 0.4 995321
04:00−10wsw3796100 0.9 997250
07:00−14w239892 0.1 99965
10:00−12wnw359492 0.1 1001270
13:00−10wnw3591100 0.1 1003443
16:00−9wnw4689100 0.1 1005658
19:00−12wnw3695100 0.1 1007247
22:00−15wnw259795 0.2 100997
10 march, wed
wed1001:00−15nw249795 0.1 1009127
04:00−16nw259798 0.3 1010157
07:00−17nnw2597100 0.1 1010148
10:00−16nnw3593100 0.2 1011356
13:00−14nnw3488100 0.1 1012597
16:00−14nw3488100 0.1 1012629
19:00−18nw3796100 0.1 1013210
22:00−23nw239880 0.1 101549